Location: Unspecified
(0.0000°N, 0.0000°E)
Time: 22:08:37
(UTC+00:00)

Vanguard 3 - Visible Passes

Search period start: 21 June 2018 00:00
Search period end: 01 July 2018 00:00
Orbit: 508 x 3264 km, 33.3° (Epoch: 21 June)

Date Brightness Start Highest point End Pass type
(mag) Time Alt. Az. Time Alt. Az. Time Alt. Az.
23 Jun 9.5 19:19:54 10° S 19:22:37 12° SSE 19:22:46 12° SSE visible
24 Jun 9.6 20:16:25 10° SSW 20:18:14 15° SSW 20:18:14 15° SSW visible
25 Jun 9.1 19:01:42 10° SSW 19:07:19 17° SSE 19:09:09 16° SE visible
26 Jun 8.6 19:59:27 10° SW 20:04:46 31° S 20:04:46 31° S visible
27 Jun 8.9 18:44:05 10° SSW 18:51:56 24° SSE 18:55:50 15° ESE visible
27 Jun 9.5 20:58:20 10° WSW 21:00:29 19° WSW 21:00:29 19° WSW visible
28 Jun 7.6 19:42:32 10° SW 19:51:17 52° SSE 19:51:38 51° SE visible
29 Jun 9.0 18:26:38 10° SW 18:36:28 32° SSE 18:42:29 10° E visible
29 Jun 8.5 20:42:03 10° WSW 20:47:31 39° W 20:47:31 39° W visible
30 Jun 7.7 19:25:39 10° SW 19:35:39 70° SSE 19:38:48 30° ENE visible
